SCP
0 0 0 0 0 0 0 0 0 0 0 0 0 0 0 0 0 0 0 0 0 0 0 0 0 0 0 0 0 1 1 1 0 0 0 0 0 0 0 0 0 0 0
1 1 0 0 0 0 0 0 0 0 0 0 0 0 0 0 0 0 0 0 0 0 0 0 0 0 0 0 0 1 1 1 1 0 0 0 0 0 0 0 0 0 0
1 1 0 0 0 0 0 0 0 0 0 0 0 0 0 0 0 0 0 0 0 0 0 0 0 0 0 0 0 0 1 1 1 1 0 0 0 0 0 0 0 0 0
1 1 0 0 0 0 0 0 0 0 0 0 0 0 0 0 0 0 0 0 0 0 0 0 0 0 0 0 0 0 1 1 1 1 0 0 0 0 0 0 0 0 0
0 0 0 0 0 0 0 0 0 0 0 0 0 0 0 0 0 0 0 0 0 0 0 0 0 0 0 0 0 0 0 1 1 0 0 0 0 0 0 0 0 0 0
0 0 0 0 0 0 0 0 0 0 0 0 0 0 0 0 0 0 0 0 0 0 0 0 0 0 0 0 0 0 0 0 0 0 0 0 0 0 0 0 0 0 0
1 1 1 1 0 0 0 0 0 0 0 0 0 0 0 0 0 0 0 0 0 0 0 0 0 0 0 0 0 0 0 0 0 0 0 0 0 0 0 0 0 0 0
1 1 1 1 0 0 0 0 0 0 0 0 0 0 0 0 0 0 0 0 0 0 0 0 0 0 0 0 0 0 0 0 0 0 0 0 0 0 0 0 0 0 0
1 1 1 0 0 0 0 0 0 0 0 0 0 0 0 0 0 0 0 0 0 0 0 0 0 0 0 0 0 0 0 0 0 0 0 0 0 0 0 0 0 0 0
1 1 0 0 0 0 0 0 0 0 0 0 0 0 0 0 0 0 0 0 0 0 0 0 0 0 0 0 0 0 0 0 0 0 0 0 0 0 0 0 0 0 0
1 1 0 0 0 0 0 0 0 0 0 0 0 0 0 0 0 0 0 0 0 0 0 0 0 0 0 0 0 0 0 0 0 0 0 0 0 0 0 0 0 0 0
1 0 0 0 0 0 0 0 0 0 0 0 0 0 0 0 0 0 0 0 0 0 0 0 0 0 0 0 0 0 0 0 0 0 0 0 0 0 0 0 0 0 0
0 0 0 0 0 0 0 0 0 0 0 0 0 0 0 0 0 0 0 0 0 0 0 0 0 0 0 0 0 0 0 0 0 0 0 0 0 0 0 0 0 0 0
0 0 0 0 0 0 0 0 0 0 0 0 0 0 0 0 0 0 0 0 0 0 0 0 0 0 0 0 0 0 0 0 0 0 0 0 0 0 0 0 0 0 0
0 0 0 0 0 0 0 0 0 0 0 0 0 0 0 0 0 0 0 0 0 0 0 0 0 0 0 0 0 0 0 0 0 0 0 0 0 0 0 0 0 0 0
0 0 0 0 0 0 0 0 0 0 0 0 0 0 0 0 0 0 0 0 0 0 0 0 0 0 0 0 0 0 0 0 0 0 0 0 0 0 0 0 0 0 0
0 0 0 0 0 0 0 0 0 0 0 0 0 0 0 0 0 0 0 0 0 0 0 0 0 0 0 0 0 0 0 0 0 0 0 0 0 0 0 0 0 0 0
0 0 0 0 0 0 0 0 0 0 0 0 0 0 0 0 0 0 0 0 0 0 0 0 0 0 0 0 0 0 0 0 0 0 0 0 0 0 0 0 0 0 0
0 0 0 0 0 0 0 0 0 0 0 0 0 0 0 0 0 0 0 0 0 0 0 0 0 0 0 0 0 0 0 0 0 0 0 0 0 0 0 0 0 0 0
0 0 0 0 0 0 0 0 0 0 0 0 0 0 0 0 0 0 0 0 0 0 0 0 0 0 0 0 0 0 0 0 0 0 0 0 0 0 0 0 0 0 0
0 0 0 0 0 0 0 0 0 0 0 0 0 0 0 0 0 0 0 0 0 0 0 0 0 0 0 0 0 0 0 0 0 0 0 0 0 0 0 0 0 0 0
0 0 0 0 0 0 0 0 0 0 0 0 0 0 0 0 0 0 0 0 0 0 0 0 0 0 0 0 0 0 0 0 0 0 0 0 0 0 0 0 0 0 0
0 0 0 0 0 0 0 0 0 0 0 0 0 0 0 0 0 0 0 0 0 0 0 0 0 0 0 0 0 0 0 0 0 0 0 0 0 0 0 0 0 0 0
0 0 0 0 0 0 0 0 0 0 0 0 0 0 0 0 0 0 0 0 0 0 0 0 0 0 0 0 0 0 0 0 0 0 0 0 0 0 0 0 0 0 0
0 0 0 0 0 0 0 0 0 0 0 0 0 0 0 0 0 0 0 0 0 0 0 0 0 0 0 0 0 0 0 0 0 0 0 0 0 0 0 0 0 0 0
0 0 0 0 0 0 0 0 0 0 0 0 0 0 0 0 0 0 0 0 0 0 0 0 0 0 0 0 0 0 0 0 0 0 0 0 0 0 0 0 0 0 0
Wind_Speed
1 1 0 0 1 1 1 2 3 3 3 4 4 4 4 4 3 2 0 1 1 1 2 4 5 6 7 7 7 7 8 9 10 10 9 9 9 9 9 9 8 8 8
1 1 0 0 1 1 1 2 3 3 3 3 3 4 3 3 2 1 1 1 2 2 3 3 4 5 6 7 7 7 8 8 9 9 10 9 10 10 9 9 9 9 8
1 0 0 0 1 2 2 1 3 3 3 3 3 3 3 2 2 2 2 1 1 2 3 3 2 3 4 5 5 6 6 6 7 8 9 10 10 10 10 10 10 10 9
1 1 1 1 2 2 1 2 1 2 3 3 2 3 3 2 3 2 2 2 1 1 1 2 2 1 2 3 3 4 3 3 5 5 7 8 9 9 9 10 10 10 10
1 1 1 1 2 2 2 3 2 2 3 3 3 3 2 2 2 3 2 2 1 1 1 2 3 3 3 3 3 3 2 2 3 4 5 6 7 7 8 8 9 10 10
1 1 1 1 2 2 2 2 3 3 3 3 4 4 3 2 2 1 2 2 1 1 1 2 2 2 2 3 4 3 3 3 3 3 4 5 5 6 7 7 8 9 9
1 0 1 1 1 1 2 3 3 4 3 2 2 3 3 2 2 1 1 1 1 1 1 1 1 1 1 2 3 3 3 3 4 4 4 4 5 5 6 7 6 7 8
0 0 1 1 2 1 2 2 2 3 3 2 2 3 2 1 2 1 1 1 1 0 1 1 0 0 1 1 2 2 3 3 3 4 4 4 4 4 5 6 6 6 7
1 1 1 1 2 2 1 2 2 3 3 3 2 1 2 2 2 1 2 1 1 1 1 1 1 1 1 1 1 1 2 2 2 3 3 3 3 4 4 5 6 6 6
1 1 1 1 2 2 2 2 2 3 3 3 3 2 2 2 1 2 2 1 1 2 2 1 1 0 0 0 2 3 3 2 2 3 4 3 3 3 4 5 5 6 7
1 1 1 1 1 1 2 2 3 3 2 3 3 3 3 2 3 2 3 2 2 1 1 1 1 0 1 1 2 3 4 2 2 1 1 2 3 4 4 5 5 6 6
1 1 1 1 2 2 2 2 2 3 2 3 3 3 3 2 3 2 3 3 2 2 1 1 1 1 1 1 2 4 4 3 2 1 1 2 3 3 4 4 4 5 5
1 1 1 1 1 1 2 2 2 2 2 3 3 2 3 2 2 2 3 3 3 2 1 1 1 1 1 1 2 4 3 4 3 3 3 3 4 5 4 5 4 4 5
1 1 0 1 1 2 2 2 2 3 2 3 4 3 3 2 2 2 2 2 3 2 1 2 1 1 0 1 2 4 2 4 5 5 4 4 4 5 5 4 4 4 4
0 1 0 1 2 2 2 2 2 3 2 3 3 3 3 2 2 2 2 2 2 2 2 1 1 1 1 1 3 3 2 4 5 5 5 5 5 5 6 6 5 5 5
0 0 1 1 2 2 2 2 3 3 2 3 2 3 3 2 2 2 2 2 2 2 2 1 1 2 1 1 3 3 2 5 6 7 7 7 7 6 6 6 6 6 6
0 0 1 1 2 2 2 3 3 3 3 3 3 3 3 3 2 2 2 2 2 1 2 2 1 2 2 2 2 2 2 3 4 8 8 8 8 7 7 6 6 6 5
0 0 1 1 2 2 2 3 3 3 3 3 3 3 3 3 3 3 2 3 2 2 2 3 2 2 2 2 3 3 3 3 3 6 9 9 8 8 8 7 7 6 6
0 1 1 1 2 3 3 3 3 3 3 3 3 3 3 3 3 2 3 3 2 2 1 2 2 2 2 2 2 3 4 3 3 4 7 9 9 9 9 9 8 8 7
1 1 1 2 2 2 3 3 4 3 3 3 3 2 2 3 3 4 3 3 2 2 2 2 2 2 2 2 2 2 2 2 2 2 3 5 8 11 11 10 10 9 9
1 1 1 1 2 2 3 4 4 4 3 3 3 3 2 2 3 3 3 3 3 2 2 2 2 1 1 1 2 2 2 2 2 2 1 2 3 4 6 9 10 10 10
1 1 1 2 2 3 4 4 4 4 4 3 3 3 3 3 3 3 5 5 4 3 3 2 2 2 2 2 2 3 2 2 2 1 1 2 2 3 4 5 9 12 12
1 1 1 1 1 2 3 4 4 3 4 3 3 3 4 4 3 3 4 4 5 6 6 4 3 3 3 2 2 3 2 2 3 2 1 3 3 3 3 5 10 12 12
1 1 1 1 1 2 3 4 5 4 4 4 3 3 3 3 4 5 5 4 3 3 5 4 4 4 4 2 3 4 4 4 4 3 3 3 3 3 3 2 8 11 12
1 2 2 2 1 1 3 4 4 3 3 4 4 3 3 2 3 5 4 4 4 4 4 4 5 6 6 6 4 2 3 3 3 2 2 2 2 2 2 2 5 11 12
2 3 2 2 2 2 3 4 4 3 3 4 3 2 2 2 3 3 3 4 4 5 5 4 4 5 6 7 7 5 4 3 3 2 2 2 2 1 2 2 2 4 6
Wind_Direction
34 32 98 317 295 315 306 312 312 318 303 307 312 314 315 312 306 325 93 159 168 179 246 257 253 251 249 243 237 234 233 229 221 215 213 214 213 216 217 214 205 199 201
77 332 328 316 358 332 333 300 305 307 304 309 307 305 308 305 312 303 273 218 220 219 235 263 262 254 247 244 236 234 235 232 222 216 214 209 208 209 213 214 212 205 204
78 335 345 41 7 306 296 300 306 297 294 296 297 301 299 293 284 275 265 243 220 226 241 250 255 256 253 250 242 239 240 233 223 218 215 213 213 212 212 213 214 209 204
28 340 352 32 333 294 303 298 292 307 301 300 300 291 290 277 268 251 248 246 232 233 221 214 203 220 240 241 244 244 244 228 213 217 219 215 211 214 214 213 212 210 206
28 358 10 16 316 308 331 318 347 322 309 309 293 277 281 270 266 263 262 255 239 229 179 188 193 198 213 219 229 224 212 210 211 214 219 216 211 210 209 211 215 213 213
43 353 339 356 327 341 342 335 329 309 293 295 301 307 290 277 271 268 267 260 240 237 207 191 178 184 188 210 203 203 204 204 209 206 216 214 207 207 209 209 212 213 211
71 20 355 356 341 351 344 334 324 310 302 311 314 305 286 257 258 247 265 289 281 292 292 204 203 159 184 195 196 200 203 216 223 219 219 214 212 213 210 206 208 208 208
19 351 44 356 5 339 350 335 328 313 314 330 317 309 306 295 334 322 303 270 289 292 299 297 14 232 203 166 175 195 207 220 235 234 229 219 213 209 211 209 200 203 200
139 39 36 12 343 339 357 323 326 328 318 318 321 310 310 313 328 296 294 297 338 316 287 256 212 238 235 149 159 141 154 191 230 245 244 234 215 204 207 207 200 201 198
121 96 55 14 346 337 334 324 5 327 318 316 315 293 281 281 279 294 289 290 278 282 282 288 297 296 35 82 117 112 105 140 201 235 244 242 234 227 219 209 207 208 205
125 96 95 352 335 327 344 338 331 322 318 312 311 313 309 294 262 265 288 295 287 270 261 260 237 221 181 180 146 132 111 107 126 176 229 243 242 239 234 227 221 211 209
136 69 42 360 322 324 327 325 316 312 307 309 309 307 303 303 298 288 286 286 281 278 270 273 250 215 227 197 150 139 143 151 170 196 220 240 240 235 229 224 217 206 205
119 76 13 318 316 326 323 330 310 307 314 316 302 295 295 288 289 289 286 291 293 282 268 255 251 225 231 127 134 158 180 185 196 212 228 241 242 231 227 224 222 219 214
72 86 312 301 309 317 321 330 311 307 317 306 305 302 294 287 283 268 267 280 288 281 267 271 271 255 270 150 176 196 202 197 202 212 220 222 227 224 224 225 227 228 220
349 51 353 301 308 308 307 313 301 301 304 298 300 300 294 293 287 278 262 249 249 276 273 260 285 282 252 184 184 214 210 208 203 209 216 217 218 218 218 217 220 218 217
6 243 290 298 300 296 300 304 298 295 302 301 297 304 304 299 302 298 287 271 249 248 274 261 254 262 272 263 224 249 227 209 211 211 215 216 215 211 212 213 213 212 215
187 286 286 292 304 310 309 304 299 307 312 314 315 318 316 311 314 310 309 304 288 254 261 281 279 277 279 262 250 261 242 215 212 213 210 211 210 206 207 209 209 206 213
225 265 290 293 300 308 304 306 308 322 321 323 323 328 333 331 334 335 333 322 302 268 248 266 273 270 268 252 246 249 253 242 224 213 207 209 208 205 206 208 210 208 210
302 306 308 316 324 321 321 321 316 321 322 326 331 337 336 336 338 330 315 310 302 306 274 265 268 266 262 260 260 264 260 258 242 205 204 209 208 208 209 212 213 212 214
300 310 322 326 329 334 345 339 331 323 320 328 337 334 337 333 330 318 308 308 308 306 286 268 263 259 264 268 263 262 273 263 260 225 206 203 208 210 212 212 214 215 216
314 333 328 326 332 337 351 348 325 321 333 338 334 324 323 328 321 306 310 314 313 299 295 289 278 280 280 281 278 275 270 266 259 234 219 218 199 203 210 216 218 218 217
360 344 337 334 344 349 8 356 337 329 327 321 313 309 295 285 284 281 280 280 275 281 291 286 277 273 275 272 278 282 286 281 276 246 229 255 214 211 212 205 208 208 212
355 339 331 338 351 356 339 333 326 306 305 305 303 300 307 322 337 321 295 275 252 245 241 252 266 268 268 269 280 284 280 274 265 259 249 257 226 228 227 215 201 203 207
321 305 312 307 304 328 325 322 318 292 285 289 287 292 298 307 336 330 310 308 292 270 246 232 245 256 259 262 258 260 260 265 261 248 223 246 241 233 233 204 203 201 207
262 269 277 288 300 288 290 304 314 292 290 290 286 298 297 314 333 331 316 313 312 303 289 268 245 247 254 258 255 275 268 265 272 260 223 234 249 247 233 218 211 207 211
252 264 265 269 272 269 262 271 289 283 291 293 291 295 311 295 296 319 314 312 308 309 318 308 286 265 249 247 235 222 242 254 268 268 235 220 248 253 268 242 206 200 216